Weather History for 06240 - July, 2013

Change the Weather History Date:

Tuesday, July 30, 2013

  Actual Average Record
Temperature  
Mean Temperature 64 °F -  
Max Temperature 68 °F 69 °F - ()
Min Temperature 60 °F 55 °F - ()
Degree Days  
Heating Degree Days 1    
Growing Degree Days 14 (Base 50)    
Moisture  
Dew Point 59 °F    
Average Humidity 84    
Maximum Humidity 100    
Minimum Humidity 66    
Precipitation  
Precipitation 0.08 in - - ()
Sea Level Pressure  
Sea Level Pressure 29.96 in    
Wind  
Wind Speed 12 mph ()    
Max Wind Speed 21 mph    
Max Gust Speed -    
Visibility 6.5 miles    
Events Rain    
T = Trace of Precipitation, MM = Missing Value Source: Averaged Metar Reports

Daily Weather History Graph

Daily Weather History Graph

Search for Another Location

Airport or City:

Trip Planner

Search our weather history database for the weather conditions in past years. The results will help you decide how hot, cold, wet, or windy it might be!

Date:

Astronomy

Jul. 30, 2013 Rise Set
Actual Time 5:58 AM CEST 9:35 PM CEST
Civil Twilight 5:16 AM CEST 10:17 PM CEST
Nautical Twilight 4:17 AM CEST 11:14 PM CEST
Astronomical Twilight 2:46 AM CEST 12:42 AM CEST
Moon 12:16 AM CEST (7/30) 3:35 PM CEST (7/30)
Length of Visible Light 17h 01m
Length of Day
15h 36m
Last Quarter, 43% of the Moon is Illuminated
Jul 30
Last Quarter
Aug 6
New
Aug 14
First Quarter
Aug 21
Full
Aug 28
Last Quarter

Hourly Weather History & Observations

Time (CEST) Temp. Dew Point Humidity Pressure Visibility Wind Dir Wind Speed Gust Speed Precip Events Conditions
12:25 AM 66.2 °F 57.2 °F 73% 29.98 in - SW 16.1 mph - N/A   Clear
12:55 AM 66.2 °F 57.2 °F 73% 29.98 in - SW 13.8 mph - N/A   Clear
1:25 AM 66.2 °F 57.2 °F 73% 29.98 in - SW 13.8 mph - N/A   Clear
1:55 AM 64.4 °F 57.2 °F 77% 29.98 in - SW 10.4 mph - N/A   Clear
2:00 AM 65 °F 57 °F 68% 29.98 in 28 mi SW 8.9 mph - -   Partly Cloudy
2:25 AM 62.6 °F 57.2 °F 82% 29.95 in - SW 6.9 mph - N/A   Clear
2:55 AM 64.4 °F 57.2 °F 77% 29.98 in 6.2 mi SW 13.8 mph - N/A   Partly Cloudy
3:25 AM 64.4 °F 55.4 °F 73% 29.98 in 6.2 mi WSW 17.3 mph - N/A   Partly Cloudy
3:55 AM 62.6 °F 57.2 °F 82% 29.98 in 6.2 mi SW 10.4 mph - N/A   Partly Cloudy
4:25 AM 60.8 °F 57.2 °F 88% 29.98 in 6.2 mi SW 8.1 mph - N/A   Partly Cloudy
4:55 AM 62.6 °F 57.2 °F 82% 29.98 in 6.2 mi SW 9.2 mph - N/A   Partly Cloudy
5:00 AM 62 °F 57 °F 80% 29.99 in 17 mi SW 8.9 mph - -   Overcast
5:25 AM 62.6 °F 57.2 °F 82% 29.98 in 6.2 mi SW 10.4 mph - N/A   Partly Cloudy
5:55 AM 60.8 °F 59.0 °F 94% 29.98 in 6.2 mi SW 11.5 mph - N/A   Partly Cloudy
6:25 AM 60.8 °F 59.0 °F 94% 29.98 in 6.2 mi SW 11.5 mph - N/A   Partly Cloudy
6:55 AM 62.6 °F 59.0 °F 88% 29.98 in 6.2 mi SW 10.4 mph - N/A   Partly Cloudy
7:25 AM 64.4 °F 59.0 °F 83% 29.98 in 6.2 mi SW 12.7 mph - N/A   Partly Cloudy
7:55 AM 64.4 °F 59.0 °F 83% 29.98 in 6.2 mi SW 13.8 mph - N/A   Partly Cloudy
8:00 AM 64 °F 59 °F 79% 30.00 in 10 mi SW 13.4 mph - -   Partly Cloudy
8:25 AM 64.4 °F 59.0 °F 83% 29.98 in 6.2 mi SW 15.0 mph - N/A   Scattered Clouds
8:55 AM 64.4 °F 60.8 °F 88% 29.98 in 6.2 mi SW 13.8 mph - N/A   Scattered Clouds
9:25 AM 64.4 °F 59.0 °F 83% 29.98 in 6.2 mi SW 16.1 mph - N/A   Scattered Clouds
9:55 AM 64.4 °F 59.0 °F 83% 29.98 in 6.2 mi SSW 18.4 mph - N/A   Scattered Clouds
10:25 AM 66.2 °F 59.0 °F 78% 29.98 in 6.2 mi SW 17.3 mph - N/A   Scattered Clouds
10:55 AM 68.0 °F 59.0 °F 73% 29.98 in 6.2 mi SW 17.3 mph - N/A   Partly Cloudy
11:00 AM 67 °F 58 °F 66% 30.00 in 13 mi SW 17.9 mph - -   Partly Cloudy
11:25 AM 66.2 °F 57.2 °F 73% 29.98 in 6.2 mi WSW 20.7 mph - N/A   Scattered Clouds
11:55 AM 66.2 °F 57.2 °F 73% 29.98 in 6.2 mi WSW 20.7 mph - N/A   Partly Cloudy
12:25 PM 66.2 °F 57.2 °F 73% 30.01 in 6.2 mi WSW 17.3 mph - N/A   Scattered Clouds
12:55 PM 64.4 °F 59.0 °F 83% 30.01 in 6.2 mi WSW 18.4 mph - N/A Rain Light Rain Showers
1:25 PM 68.0 °F 60.8 °F 78% 30.01 in 6.2 mi WSW 19.6 mph - N/A   Scattered Clouds
1:55 PM 66.2 °F 57.2 °F 73% 30.01 in 5.6 mi WSW 18.4 mph - N/A Rain Light Rain Showers
2:00 PM 66 °F 59 °F 70% 30.01 in 16 mi WSW 17.9 mph - - Rain Rain
2:25 PM 64.4 °F 59.0 °F 83% 30.01 in 5.0 mi WSW 15.0 mph - N/A Rain Light Rain Showers
2:55 PM 60.8 °F 59.0 °F 94% 30.01 in 3.7 mi SW 9.2 mph - N/A Rain Light Rain Showers
3:25 PM 64.4 °F 60.8 °F 88% 29.98 in 6.2 mi SSW 5.8 mph - N/A   Scattered Clouds
3:55 PM 64.4 °F 60.8 °F 88% 29.98 in 6.2 mi South 5.8 mph - N/A Rain Light Rain Showers
4:25 PM 64.4 °F 60.8 °F 88% 29.95 in 3.7 mi South 3.5 mph - N/A Rain Light Rain Showers
4:55 PM 62.6 °F 60.8 °F 94% 29.98 in 6.2 mi SW 10.4 mph - N/A   Scattered Clouds
5:00 PM 63 °F 61 °F 92% 29.97 in 22 mi SW 8.9 mph - - Rain Rain
5:25 PM 64.4 °F 60.8 °F 88% 29.95 in 6.2 mi SW 9.2 mph - N/A Rain Light Rain Showers
5:55 PM 64.4 °F 60.8 °F 88% 29.95 in 6.2 mi SW 11.5 mph - N/A Rain Light Rain
6:25 PM 66.2 °F 59.0 °F 78% 29.92 in 6.2 mi SSW 17.3 mph - N/A   Scattered Clouds
6:55 PM 64.4 °F 59.0 °F 83% 29.92 in 6.2 mi SSW 19.6 mph - N/A Rain Light Rain
7:25 PM 62.6 °F 60.8 °F 94% 29.92 in 6.2 mi South 11.5 mph - N/A   Light Drizzle
7:55 PM 62.6 °F 60.8 °F 94% 29.89 in 3.1 mi South 15.0 mph - N/A Rain Light Drizzle
8:25 PM 62.6 °F 60.8 °F 94% 29.89 in 3.1 mi South 15.0 mph - N/A   Light Drizzle
8:55 PM 62.6 °F 60.8 °F 94% 29.86 in 3.1 mi South 13.8 mph - N/A   Light Drizzle
9:25 PM 62.6 °F 62.6 °F 100% 29.86 in 3.7 mi South 12.7 mph - N/A   Light Drizzle
9:55 PM 62.6 °F 62.6 °F 100% 29.86 in 3.1 mi South 11.5 mph - N/A   Light Drizzle
10:25 PM 64.4 °F 62.6 °F 94% 29.86 in 4.3 mi SW 15.0 mph - N/A   Light Drizzle
10:55 PM 64.4 °F 62.6 °F 94% 29.86 in 6.2 mi WSW 16.1 mph - N/A   Mostly Cloudy
11:00 PM 64 °F 63 °F 94% 29.88 in 11 mi WSW 17.9 mph - - Rain Drizzle
11:25 PM 64.4 °F 62.6 °F 94% 29.86 in 6.2 mi WSW 13.8 mph - N/A   Mostly Cloudy
11:55 PM 64.4 °F 62.6 °F 94% 29.89 in 6.2 mi WSW 17.3 mph - N/A   Mostly Cloudy